Location: Poughquag
(41.6090°N, 73.6820°W)
Time: 13:50:52
(UTC-04:00)

Altair - Pass Details

Date: 03 June 2020
Orbit: 1501 x 1683 km, 47.2° (Epoch: 05 July)

Event Time Altitude Azimuth Distance (km) Brightness Sun altitude
Rises 23:03:36 0° 253° (WSW) 4,823 10.2 -21.1°
Reaches altitude 10° 23:06:41 10° 255° (WSW) 3,860 9.7 -21.3°
Maximum altitude 23:16:39 76° 341° (NNW) 1,713 7.8 -22.1°
Drops below altitude 10° 23:26:52 10° 68° (ENE) 3,949 9.6 -22.9°
Sets 23:30:04 0° 70° (ENE) 4,938 10.2 -23.1°
